Weather in Zaozerye

Russia / Yaroslavl Oblast     57°11′50″N   38°14′45″E
temp.,
°C
wind,
m/s
gust,
m/s
humid.,
%
clouds,
%
prec.,
mm/h
press.,
hPa
HPBL,
m
14 april, wed
wed1400:00+11sse3117058 0.0 1021197
03:00+10s413675 0.0 1021304
06:00+10sse412725 0.0 1020262
09:00+14s5146383 0.0 1019605
12:00+18ssw6105391 0.0 10191268
15:00+19ssw5948100 0.0 10181789
18:00+17ssw2555100 0.0 1017103
21:00+14s2757100 0.0 1018141
15 april, thu
thu1500:00+11n127180 0.0 101838
03:00+8nne3797100 0.0 1019231
06:00+8nne3895100 0.0 1019353
09:00+10nne4889100 0.0 1020512
12:00+11ne5780100 0.0 1020686
15:00+10ne5977100 0.0 1021819
18:00+9ne51179100 0.0 1022697
21:00+6ne61483100 0.0 1023584
16 april, fri
fri1600:00+5ene51484100 0.0 1023543
03:00+4ene51383100 0.0 1024509
06:00+4ene51385100 0.0 1024491
09:00+6ene5107093 0.0 1025541
12:00+11ene685858 0.0 1025874
15:00+12ene685199 0.0 10251126
18:00+11ene5954100 0.0 10261035
21:00+8ene5135356 0.0 1027556
17 april, sat
sat1700:00+6ene5146029 0.0 1027491
03:00+4ene513666 0.0 1028442
06:00+3ene5146757 0.0 1029460
09:00+7ene611495 0.0 1029648
12:00+11ene68355 0.0 10291103
15:00+13ene58345 0.0 10291380
18:00+11ene47445 0.0 10291123
21:00+6ne37645 0.0 1030140
18 april, sun
sun1800:00+4ne310740 0.0 1031204
03:00+3ne39805 0.0 1031182
06:00+2ene28810 0.0 1032162
09:00+8ene36550 0.0 1032543
12:00+11ene45405 0.0 10321581
15:00+13ene45375 0.0 10311800
18:00+12ene36475 0.0 1031815
21:00+7ene23675 0.0 103241